CUBEBEL-1 (BSUSAT-1) (43666 NORAD) Tracking and Keplerian Element Data

This shows tracking and keplerian element data for the satellite.

Feedback or suggestion? Click here.




ElementValue
Catalog43666
NameCUBEBEL-1 (BSUSAT-1)
Epoch Orbit4429
Epoch Day229.09268303
Epoch Year2019
RAAN253.1607
Inclination97.5181
Eccentricity0.0014658
Argument of Perigee348.1793
Mean Anonmoly97.8994
Mean Motion15.17662215
Decay Rate4.02E-06
L11 43666U 18083E 19229.09268303 .00000402 00000-0 23335-4 0 9995
L22 43666 97.5181 253.1607 0014658 348.1793 97.8994 15.17662215 44292

Live tracking and technical data element details for CUBEBEL-1 (BSUSAT-1) (NORAD 43666). CUBEBEL-1 (BSUSAT-1) can be tracked NOW for your location showing map with azimuth and elevation plus other details from your city location.

Track the satellite on the map from your city or location and see movement details for azimuth, elevation, latitude, longitude, range, height, and movement on the map or in text.







IsCatalogInMostPopularTable: catalog: 43666, numindb: 138
Update: records affected: 1



GetName: 43666 CUBEBEL-1 (BSUSAT-1)

Hit Count: updated at: Tue, 20 Aug 2019 18:06:24 GMT